Zurück zum Katalog

COSMOS 158

AktivMilitärLEO
NORAD 2801·PAYLOAD·🇷🇺 Russia

Gestartet May 15, 1967 von Plesetsk Cosmodrome

Loading…

Nächste Überflüge (nächste 24 Stunden)

TLE

AktuellSource: Space-Track

Epoche: Sep 14, 2026, 07:09 UTC

1 02801U 67045A   26257.29860530 -.00000008  00000-0  59104-5 0  9991
2 02801  74.0376 261.2603 0055782  87.0800 273.6736 14.36948429109228

Verfolge COSMOS 158 in Echtzeit mit AllMySat

Download on the App Store